Wind_Speed
9 9 9 9 10 11 11 12 12 13 14 15 15 15 15 16 16 15 15 16 17 17 17 18 19 19 20 20 21 21 22 22 22 22 23 23 24 24
9 10 11 12 12 12 13 13 13 13 13 15 15 15 15 16 16 16 16 16 17 18 18 19 20 21 22 23 23 23 24 24 24 25 25 26 26 27
10 11 12 13 13 13 13 13 13 13 14 14 15 15 15 16 17 17 18 18 19 19 19 20 21 23 23 24 25 26 26 27 27 27 27 27 28 28
11 12 12 13 13 13 14 14 14 15 15 15 16 16 16 17 17 17 17 18 19 19 19 20 21 22 23 24 25 26 27 27 28 29 29 29 29 30
12 12 13 13 13 13 14 14 15 16 16 16 17 18 18 17 18 18 19 20 21 21 21 21 22 23 24 25 26 27 28 29 30 30 31 31 32 32
13 13 13 13 13 13 14 15 16 17 18 18 19 19 19 19 19 20 21 21 23 23 23 23 24 25 25 26 27 27 29 30 31 32 33 33 34 35
13 13 13 14 14 14 15 17 17 18 19 19 19 19 20 20 21 21 21 22 23 23 24 24 25 26 27 28 28 29 31 31 32 33 33 34 34 35
13 14 14 14 15 16 17 17 18 19 19 19 20 20 21 21 21 22 22 23 24 25 25 26 27 27 28 29 30 31 32 33 34 34 35 36 36 37
15 15 16 16 16 17 17 18 19 20 20 20 21 21 21 21 22 23 24 24 25 26 27 28 29 29 30 30 31 32 34 34 35 35 35 36 37 38
16 16 16 17 17 18 18 18 19 19 20 20 21 21 22 23 23 24 25 26 27 27 28 29 29 30 32 32 33 34 34 35 36 36 37 38 39 40
17 17 17 17 18 18 19 19 20 20 21 21 22 23 24 24 25 26 27 27 28 29 30 31 31 32 33 34 35 35 36 37 37 37 38 39 40 40
17 17 18 19 19 20 20 20 21 22 23 23 24 25 25 26 27 28 29 29 30 31 32 33 33 34 34 35 36 37 37 38 38 39 40 41 41 41
19 19 19 20 21 21 22 22 23 23 24 25 26 26 27 27 28 29 30 31 31 32 34 35 35 36 37 37 37 37 38 39 40 40 41 42 42 42
20 21 21 22 22 23 24 24 25 25 26 27 27 28 28 28 29 30 31 32 32 33 34 35 35 35 36 37 37 38 39 40 41 41 42 42 42 42
21 21 22 23 24 25 25 26 26 27 28 28 28 29 29 29 30 31 32 33 33 34 34 34 35 36 37 37 38 39 39 40 41 41 42 42 42 42
23 23 24 24 25 26 27 27 28 28 29 30 30 29 30 31 32 33 33 34 34 35 35 36 37 39 39 40 40 40 41 41 41 42 42 42 42 42
24 24 25 26 27 27 28 28 28 29 29 30 30 31 31 32 33 34 35 35 36 36 37 38 39 40 40 41 41 41 42 42 42 42 42 43 43 43
25 26 27 27 28 29 29 29 29 30 30 31 31 32 33 34 35 35 36 37 37 38 39 39 39 40 41 41 42 42 42 42 42 43 43 44 43 44
26 27 27 28 29 29 29 30 30 31 32 32 33 34 34 35 35 36 37 38 38 38 39 40 40 41 41 42 42 42 42 42 42 43 43 44 43 43
28 28 28 29 30 30 30 31 32 32 32 33 34 34 35 36 37 38 39 39 39 39 40 40 41 41 41 42 41 41 42 42 42 42 42 42 42 42
29 29 30 30 31 31 32 32 33 33 33 34 35 36 37 37 38 39 39 39 40 40 40 41 41 41 41 41 41 41 41 41 40 40 39 39 39 39
29 29 30 31 32 32 32 33 33 33 34 34 36 37 38 39 39 39 39 40 40 41 41 41 41 41 41 41 41 40 40 39 39 38 38 38 38 37
29 30 31 31 32 32 32 33 33 34 35 36 37 38 39 39 39 40 39 40 40 41 41 41 41 41 41 41 40 40 39 38 37 37 37 38 38 37
Wind_Direction
288 289 289 291 291 292 292 289 286 285 287 289 289 290 289 289 289 285 281 280 278 278 278 276 275 273 272 272 273 275 275 274 275 275 275 275 274 273
288 288 288 289 293 294 294 293 292 293 291 290 289 291 291 292 291 287 284 283 282 281 280 278 277 276 275 273 273 275 277 276 275 275 275 275 275 274
286 287 287 288 292 292 293 294 296 296 296 292 291 293 294 293 292 289 287 282 281 282 282 279 278 279 278 276 275 276 277 277 277 276 277 276 277 277
287 289 292 292 296 292 290 293 295 295 295 294 294 295 293 293 292 292 290 288 285 284 286 286 284 281 279 277 277 277 278 279 278 277 276 277 278 278
292 295 295 296 294 291 291 292 294 294 294 291 292 294 292 292 292 291 289 289 287 287 287 287 286 284 282 281 278 279 279 279 279 280 278 277 277 276
295 298 296 296 296 291 290 291 292 293 293 293 291 289 290 291 291 291 290 289 290 288 287 286 287 286 284 284 283 283 283 282 282 281 280 279 278 276
296 297 297 298 299 293 291 294 294 293 293 294 293 290 291 290 290 291 290 290 291 290 288 287 288 287 286 285 285 285 285 284 284 283 282 280 279 278
293 294 296 298 300 298 294 295 296 295 294 294 295 294 293 292 292 292 293 292 293 292 291 290 291 291 290 289 287 286 285 285 284 284 284 282 281 280
292 291 293 295 297 299 299 297 299 299 298 296 295 296 296 295 294 293 294 294 294 292 291 291 292 292 292 291 290 289 287 286 285 284 283 283 283 282
294 291 293 294 296 297 298 301 303 304 303 301 300 298 297 297 296 296 295 294 293 293 293 292 293 293 293 292 292 291 289 286 285 284 285 285 285 285
293 293 293 295 296 298 300 302 303 302 303 303 301 300 297 296 295 295 295 294 294 293 293 292 292 292 292 292 292 290 289 289 288 287 287 287 287 286
293 294 293 293 295 297 300 302 302 302 303 303 303 301 299 297 296 296 295 294 293 293 294 293 293 293 293 293 292 292 290 289 288 287 288 288 287 287
292 293 294 294 295 296 298 300 300 301 302 302 302 301 299 298 298 298 297 295 294 295 294 294 295 296 295 294 293 293 291 290 290 289 289 289 288 288
290 292 293 294 295 295 296 298 299 299 300 301 301 301 301 301 300 300 300 298 298 297 297 296 297 297 297 296 295 294 293 292 291 290 290 289 289 288
289 291 293 294 295 296 296 297 297 298 299 300 301 301 301 300 301 301 301 300 299 298 297 297 297 297 297 297 296 295 294 293 292 291 290 290 289 289
289 291 293 295 295 296 296 296 297 299 300 299 299 299 300 301 302 302 302 301 301 300 299 299 299 299 298 297 296 296 295 293 292 292 291 291 291 291
289 291 293 294 295 297 297 296 297 298 299 300 299 300 301 302 303 303 303 303 302 301 301 300 300 299 299 298 298 297 296 295 294 293 292 292 292 291
290 291 293 294 295 297 297 297 298 298 298 299 300 301 301 302 302 303 304 303 303 302 301 301 300 300 300 300 300 299 297 296 295 294 293 293 293 292
290 291 293 294 295 296 297 297 297 298 298 299 300 301 302 303 303 304 304 304 304 303 303 302 302 302 301 301 301 300 299 298 297 296 295 295 294 294
289 291 292 293 295 295 296 297 297 299 299 300 302 303 304 304 304 305 305 305 305 305 305 305 305 305 304 303 303 302 301 300 299 299 298 297 297 296
289 290 291 292 294 295 296 297 298 299 300 301 303 304 305 305 306 306 307 306 306 306 306 306 306 306 306 305 305 305 304 304 303 302 301 300 300 299
290 290 291 293 294 295 296 298 299 300 301 302 304 305 306 306 306 307 307 307 307 308 308 307 307 307 307 306 307 307 306 306 305 304 303 303 303 303
291 292 292 293 294 295 297 298 300 302 303 304 305 307 308 308 308 308 309 308 308 309 309 308 307 307 307 307 307 307 306 306 305 304 304 305 305 305
Height
5887 5886 5886 5885 5885 5884 5883 5883 5882 5882 5881 5879 5878 5877 5876 5875 5874 5873 5872 5871 5871 5870 5870 5869 5869 5868 5868 5867 5867 5866 5866 5865 5865 5864 5863 5863 5862 5861
5885 5884 5884 5883 5882 5881 5880 5879 5878 5878 5877 5876 5875 5873 5872 5871 5870 5869 5868 5867 5867 5866 5865 5864 5864 5863 5863 5862 5861 5861 5860 5859 5858 5858 5857 5856 5855 5854
5882 5882 5881 5880 5879 5878 5877 5876 5875 5874 5873 5872 5871 5870 5868 5867 5866 5865 5864 5863 5862 5861 5860 5859 5858 5857 5856 5856 5855 5854 5853 5852 5851 5850 5849 5849 5848 5847
5880 5879 5878 5877 5875 5874 5873 5872 5871 5871 5870 5869 5867 5866 5865 5863 5862 5861 5860 5859 5857 5856 5855 5854 5852 5851 5850 5849 5848 5847 5846 5845 5844 5843 5842 5841 5840 5839
5877 5876 5875 5874 5872 5871 5869 5868 5868 5867 5866 5865 5863 5862 5860 5859 5858 5857 5855 5854 5852 5851 5849 5848 5847 5845 5844 5842 5841 5840 5839 5837 5836 5835 5834 5833 5831 5830
5874 5873 5871 5870 5868 5867 5866 5865 5864 5863 5861 5860 5858 5857 5856 5855 5853 5852 5850 5848 5847 5845 5843 5842 5840 5839 5837 5836 5834 5832 5831 5829 5828 5826 5824 5823 5822 5820
5871 5869 5868 5867 5865 5863 5863 5861 5860 5858 5857 5855 5854 5852 5851 5849 5848 5846 5845 5843 5841 5839 5837 5835 5834 5832 5830 5828 5826 5825 5823 5821 5819 5817 5815 5813 5811 5810
5868 5866 5865 5863 5862 5860 5858 5857 5855 5854 5852 5851 5849 5847 5846 5844 5842 5840 5839 5837 5835 5833 5830 5828 5826 5824 5822 5820 5818 5816 5814 5812 5809 5807 5805 5803 5801 5799
5864 5863 5861 5860 5858 5856 5855 5853 5851 5849 5847 5846 5844 5842 5840 5838 5836 5834 5832 5831 5828 5826 5824 5821 5819 5817 5814 5812 5809 5807 5804 5802 5799 5797 5795 5792 5790 5787
5860 5859 5858 5856 5854 5853 5851 5849 5847 5845 5843 5840 5839 5837 5835 5832 5830 5828 5826 5824 5821 5819 5816 5814 5811 5808 5806 5803 5800 5797 5794 5792 5789 5786 5784 5781 5779 5776
5856 5855 5853 5852 5851 5849 5847 5845 5843 5840 5838 5836 5833 5831 5828 5826 5824 5822 5819 5816 5814 5811 5808 5806 5803 5800 5797 5794 5791 5787 5784 5781 5778 5776 5773 5770 5767 5765
5852 5851 5849 5848 5846 5844 5842 5840 5838 5835 5833 5830 5828 5825 5822 5820 5817 5815 5812 5809 5806 5803 5800 5797 5794 5790 5787 5784 5781 5777 5774 5771 5768 5765 5762 5758 5755 5752
5847 5846 5844 5842 5841 5839 5837 5834 5832 5830 5827 5824 5822 5819 5816 5813 5810 5807 5804 5801 5798 5794 5791 5788 5784 5781 5777 5774 5770 5767 5763 5760 5757 5753 5750 5746 5743 5740
5842 5841 5839 5837 5835 5833 5831 5828 5826 5823 5821 5818 5815 5811 5808 5805 5802 5798 5795 5792 5788 5785 5782 5778 5774 5771 5767 5764 5760 5756 5752 5749 5745 5741 5738 5734 5731 5727
5836 5835 5833 5831 5829 5827 5824 5822 5819 5816 5813 5810 5807 5804 5801 5797 5794 5791 5787 5783 5780 5776 5772 5768 5764 5761 5757 5753 5749 5745 5742 5737 5733 5730 5726 5722 5718 5715
5830 5829 5827 5824 5822 5820 5817 5815 5812 5809 5806 5803 5800 5796 5793 5789 5786 5782 5778 5774 5770 5766 5762 5758 5754 5750 5746 5742 5737 5733 5729 5726 5722 5717 5713 5709 5705 5702
5823 5822 5820 5818 5815 5813 5810 5807 5805 5801 5798 5795 5792 5788 5785 5781 5777 5773 5769 5765 5761 5757 5753 5748 5744 5739 5734 5730 5726 5721 5717 5713 5708 5704 5700 5696 5692 5689
5817 5815 5813 5810 5808 5805 5802 5800 5797 5794 5790 5787 5784 5780 5776 5772 5768 5764 5760 5755 5751 5746 5742 5738 5733 5728 5723 5718 5714 5709 5704 5700 5695 5691 5687 5683 5679 5675
5810 5807 5805 5803 5800 5798 5795 5792 5789 5785 5782 5779 5775 5771 5767 5763 5759 5754 5750 5745 5740 5736 5731 5726 5721 5717 5712 5708 5702 5696 5692 5687 5683 5678 5673 5669 5665 5661
5802 5800 5798 5795 5793 5790 5787 5784 5780 5777 5773 5770 5766 5762 5758 5754 5749 5744 5740 5735 5730 5725 5720 5715 5710 5705 5700 5696 5691 5685 5679 5674 5670 5665 5661 5656 5652 5647
5793 5792 5789 5787 5784 5781 5778 5775 5772 5768 5765 5761 5757 5753 5748 5744 5739 5734 5729 5724 5719 5715 5709 5704 5699 5693 5688 5683 5678 5673 5667 5662 5657 5653 5648 5644 5640 5636
5785 5783 5781 5778 5775 5773 5770 5766 5763 5759 5756 5752 5748 5743 5739 5734 5729 5724 5719 5714 5709 5704 5699 5694 5688 5683 5677 5672 5666 5661 5656 5651 5646 5641 5636 5632 5628 5624
5777 5774 5772 5769 5767 5764 5760 5757 5754 5750 5747 5742 5738 5734 5729 5724 5719 5714 5709 5704 5699 5694 5688 5683 5677 5672 5666 5660 5655 5650 5645 5640 5635 5630 5626 5621 5617 5612